Moses Lake, WA
on Tuesday, January 8, 2013

Tuesday
Previous Day Next Day
Daily Summary
 ActualAverageRecord
Temperature
Mean Temperature °F 29°F  
Max Temperature 45°F 35°F 55°F (2002)
Min Temperature 21°F 23°F -1°F (1982)
Degree Days
Heating Degree Days 32 36  
Month to date heating degree days 300 294  
Since 1 July heating degree days 2508 2881  
Cooling Degree Days 0 0  
Month to date cooling degree days 0 0  
Year to date cooling degree days 0 0  
Moisture
Dew Point 32°F   
Average Humidity 91    
Maximum Humidity 100    
Minimum Humidity 82    
Precipitation
Precipitation 0.16 in 0.05 in 0.16 in (2013)
Month to date precipitation 0.27 0.40  
Year to date precipitation 0.27 0.40  
Wind
Wind Speed 6 mph   
Max Wind Speed 18 mph   
Max Gust Speed 23 mph   
Visibility 4 miles   
Events Fog , Rain   

Key: T is trace of precipitation, MM is missing value
Source: NWS Daily Summary
Time(PST)TemperatureDew PointHumidity Pressure Visibility Wind DirectionWind SpeedGust SpeedPrecipitationEvents Conditions
12:03 AM 23.0°F 19.4°F 86% 30.04 in 5.0 miles NNW 3.5 mph - N/A   Scattered Clouds
12:52 AM 25.0°F 21.9°F 88% 30.11 in 9.0 miles WSW 5.8 mph - N/A   Clear
1:52 AM 24.1°F 21.9°F 91% 30.12 in 8.0 miles South 3.5 mph - N/A   Clear
2:52 AM 25.0°F 21.9°F 88% 30.14 in 9.0 miles WSW 4.6 mph - N/A   Clear
3:52 AM 27.0°F 24.1°F 89% 30.13 in 10.0 miles Calm Calm - N/A   Clear
4:52 AM 30.9°F 28.0°F 89% 30.11 in 10.0 miles West 6.9 mph - N/A   Overcast
5:52 AM 30.9°F 28.0°F 89% 30.13 in 10.0 miles Calm Calm - N/A   Overcast
6:52 AM 32.0°F 28.9°F 88% 30.13 in 10.0 miles SSE 5.8 mph - N/A   Overcast
7:52 AM 33.1°F 30.0°F 89% 30.14 in 10.0 miles SE 4.6 mph - 0.00 in Rain Light Rain
8:29 AM 33.8°F 30.2°F 87% 30.11 in 7.0 miles SE 3.5 mph - 0.02 in Rain Light Rain
8:52 AM 35.1°F 32.0°F 89% 30.14 in 6.0 miles SSE 8.1 mph - 0.04 in Rain Light Rain
9:52 AM 36.0°F 33.1°F 89% 30.14 in 4.0 miles ESE 5.8 mph - 0.06 in Rain Light Rain
10:17 AM 35.6°F 33.8°F 93% 30.09 in 5.0 miles East 6.9 mph - 0.02 in Rain Light Rain
10:52 AM 36.0°F 34.0°F 93% 30.12 in 8.0 miles East 5.8 mph - 0.04 in   Overcast
11:23 AM 37.4°F 33.8°F 87% 30.06 in 10.0 miles ESE 6.9 mph - 0.00 in   Overcast
11:37 AM 35.6°F 33.8°F 93% 30.05 in 10.0 miles SE 6.9 mph - 0.00 in   Overcast
11:52 AM 36.0°F 34.0°F 93% 30.08 in 9.0 miles SSE 6.9 mph - 0.00 in   Overcast
12:13 PM 35.6°F 33.8°F 93% 30.02 in 7.0 miles SSE 10.4 mph - 0.00 in   Overcast
12:40 PM 35.6°F 33.8°F 93% 30.01 in 4.0 miles SSE 5.8 mph - 0.00 in   Overcast
12:52 PM 36.0°F 34.0°F 93% 30.05 in 2.5 miles SSE 4.6 mph - 0.00 in   Overcast
1:03 PM 35.6°F 33.8°F 93% 30.00 in 1.0 miles SSE 4.6 mph - N/A   Overcast
1:10 PM 35.6°F 33.8°F 93% 30.00 in 0.5 miles SE 5.8 mph - 0.01 in Fog Fog
1:16 PM 35.6°F 33.8°F 93% 30.00 in 0.5 miles SE 4.6 mph - 0.01 in Fog Fog
1:32 PM 35.6°F 33.8°F 93% 30.00 in 0.5 miles SE 3.5 mph - 0.01 in Fog Fog
1:42 PM 35.6°F 35.6°F 100% 30.00 in 0.2 miles Calm Calm - 0.01 in Fog Fog
1:52 PM 36.0°F 35.1°F 97% 30.03 in 0.2 miles SE 3.5 mph - 0.01 in Fog Fog
2:26 PM 35.6°F 33.8°F 93% 29.98 in 0.5 miles South 4.6 mph - 0.01 in Fog Fog
2:36 PM 35.6°F 33.8°F 93% 29.97 in 0.2 miles SSE 4.6 mph - 0.01 in Fog Fog
2:52 PM 36.0°F 34.0°F 93% 30.00 in 0.2 miles SSE 4.6 mph - 0.01 in Fog Fog
3:52 PM 35.1°F 33.1°F 92% 29.99 in 0.2 miles SSE 5.8 mph - N/A Fog Fog
4:40 PM 35.6°F 33.8°F 93% 29.92 in 0.8 miles South 4.6 mph - N/A   Mist
4:48 PM 35.6°F 33.8°F 93% 29.92 in 1.0 miles South 4.6 mph - N/A   Overcast
4:52 PM 35.6°F 33.8°F 93% 29.92 in 2.0 miles South 5.8 mph - N/A   Overcast
5:00 PM 35.6°F 33.8°F 93% 29.91 in 7.0 miles South 6.9 mph - N/A   Overcast
5:52 PM 37.9°F 36.0°F 93% 29.91 in 10.0 miles South 8.1 mph - N/A   Overcast
6:34 PM 37.4°F 35.6°F 93% 29.86 in 5.0 miles South 3.5 mph - N/A   Overcast
6:52 PM 37.0°F 35.1°F 93% 29.88 in 2.0 miles SSW 5.8 mph - N/A   Overcast
6:57 PM 35.6°F 35.6°F 100% 29.84 in 0.8 miles SSW 6.9 mph - N/A   Overcast
7:12 PM 37.4°F 35.6°F 93% 29.83 in 2.5 miles South 9.2 mph - N/A   Mostly Cloudy
7:19 PM 37.4°F 35.6°F 93% 29.83 in 7.0 miles SSW 9.2 mph - N/A   Scattered Clouds
7:52 PM 36.0°F 35.1°F 97% 29.87 in 1.2 miles SW 3.5 mph - N/A   Partly Cloudy
7:54 PM 35.6°F 33.8°F 93% 29.84 in 0.8 miles WSW 4.6 mph - N/A   Mist
8:00 PM 35.6°F 33.8°F 93% 29.84 in 0.2 miles WSW 4.6 mph - N/A Fog Fog
8:48 PM 35.6°F 33.8°F 93% 29.82 in 0.2 miles Calm Calm - N/A Fog Fog
8:52 PM 34.0°F 33.1°F 96% 29.86 in 0.2 miles SSE 3.5 mph - N/A Fog Fog
9:07 PM 33.8°F 32.0°F 93% 29.81 in 0.5 miles Calm Calm - N/A Fog Fog
9:19 PM 35.6°F 33.8°F 93% 29.81 in 1.0 miles ESE 3.5 mph - N/A   Mist
9:25 PM 35.6°F 33.8°F 93% 29.81 in 2.0 miles SE 4.6 mph - N/A   Clear
9:35 PM 35.6°F 33.8°F 93% 29.81 in 4.0 miles SSE 4.6 mph - N/A   Clear
9:52 PM 35.6°F 33.8°F 93% 29.80 in 10.0 miles South 8.1 mph - N/A   Clear
10:52 PM 42.1°F 37.0°F 82% 29.83 in 10.0 miles South 17.3 mph - N/A   Clear
11:52 PM 41.0°F 35.1°F 79% 29.82 in 10.0 miles South 12.7 mph - N/A   Clear
Moon Phase
Jan. 08 Jan. 11 Jan. 18 Jan. 26 Feb. 03
Sunrise:07:42 AM (PST) Moon Rise:04:20 AM (PST)1/8
Sunset:04:26 PM (PST) Moon Set:01:33 PM (PST)1/8

Copyright © 2014 The Weather Underground, Inc.